Location: Apollinopolis Magna
(24.9792°N, 32.8772°E)
Time: 04:14:05
(UTC+00:00)

USA 234 - Pass Details

Date: 02 March 2021
Orbit: 1102 x 1105 km, 123.0° (Epoch: 12 April)

Event Time Altitude Azimuth Distance (km) Brightness Sun altitude
Rises 16:51:31 0° 30° (NNE) 3,918 5.9 -14.4°
Reaches altitude 10° 16:54:07 10° 23° (NNE) 2,959 5.3 -15.0°
Maximum altitude 17:00:11 42° 315° (NW) 1,517 4.3 -16.4°
Drops below altitude 10° 17:06:14 10° 247° (WSW) 2,954 6.5 -17.8°
Sets 17:08:51 0° 241° (WSW) 3,910 7.2 -18.4°
